星链-3043 (STARLINK-3043 )

导读 | 星芒AI

STARLINK-3043 是 SpaceX Starlink 项目中的一颗低轨道通信卫星,属于第三代 Starlink 卫星(也称为 v1.5 或 Block V)。该卫星于 2023 年发射,旨在为全球提供高速互联网服务。它运行在约 550 公里的轨道高度,具备先进的星间激光通信技术,可提升网络覆盖与传输效率。STARLINK-3043 采用可再生太阳能供电,并具备自动避撞功能,以确保太空安全。作为 Starlink 卫星群的一部分,它有助于扩大 SpaceX 在全球宽带市场的影响力。

基本信息
目录编号:
49179
目录名称:
STARLINK-3043
国际标识:
2021-082BB
轨道中心:
EARTH
卫星名称:
星链-3043
卫星全名:
星链-3043 (STARLINK-3043 )
卫星状态:
在轨 (已飞行1507 天)
发射日期:
2021-09-14 UTC
国别 :
美国 (US)
星等 :
--
轨道信息
数据来源 国际轨道数据
星历时间: 2025-10-30T12:44:46+0800
17小时前
查看轨道信息
半长轴: 6950.179km
偏心率: 0.0002765
轨道倾角: 70.000°
近地点辐角 269.890°
升交点赤经 223.457°
平近点角 90.194°
近地点: 570.122km
远地点: 573.966km
周期: 96.107分钟
每日圈数: 14.983348
详细信息
固有亮度:
5
最大亮度:
2.5
卫星平台:
Starlink v1.5
覆盖范围:
全球
运营商:
太空探索技术公司
运营商所在国:
美国
制造商(研发单位):
太空探索技术公司
制造商所在国:
美国
使用方式:
暂无
卫星简介
星链(Starlink)计划是由太空探索技术公司(SpaceX)提出的一个巨型低轨卫星互联网星座项目,计划在2019年至2024年间在太空搭建由约1.2万颗卫星组成的“星链”网络,其中1584颗将部署在地球上空550千米处的近地轨道,并从2020年开始工作。该卫星仍在工作。
2D轨道图
3D轨道图
轨道高度分析图
轨道倾角分析图
轨道综合分析图
查看轨道综合分析图